COSMOS 2545 (760)

Last updated on July 6, 2021, 3:40 p.m. UTC

1 45358U 20018A   21186.89289154 -.00000052  00000-0  00000-0 0  9998
2 45358  64.9040  15.3038 0006626 240.8408 317.4733  2.13102953 10146
UTC
Height (km)
Latitude
Longitude
Inclination
Orbital Period
UTC large
Height (km)
Speed (km/s)
/
Latitude / Longitude
Inclination (degrees)
Orbital Period (minutes)
Azimuth
Elevation
Range (km)
Doppler Factor
iOS Compass Heading
iOS Angle